Volver al catálogo

STARLINK-37997

ActivoComunicacionesSSO
NORAD 69682·PAYLOAD·🇺🇸 United States

Lanzado Jun 25, 2026 desde Vandenberg Space Force Base

Loading…

Próximos Pases (próximas 24 horas)

TLE

ActualizadoSource: CelesTrak SupGP

Época: Sep 14, 2026, 23:15 UTC

1 69682C 26145F   26257.96923611  .00085887  00000+0  26667-2 0  2579
2 69682  97.2847 104.6782 0001938  93.2898 258.3606 15.33388373    13

Sigue STARLINK-37997 en tiempo real con AllMySat

Download on the App Store